QPF
0.00 0.00 0.01 0.03 0.10 0.12 0.07 0.03 0.01 0.01 0.01 0.01 0.01 0.02 0.03 0.05 0.09 0.13 0.11 0.07 0.08 0.06 0.07 0.11 0.27 0.10 0.03 0.04 0.05 0.06 0.08 0.07 0.06 0.06 0.05 0.05 0.05 0.05 0.05 0.05 0.07 0.08 0.07 0.07 0.06 0.06 0.04 0.04 0.04
0.00 0.00 0.02 0.06 0.15 0.11 0.07 0.03 0.01 0.01 0.00 0.01 0.01 0.01 0.01 0.02 0.03 0.09 0.11 0.10 0.07 0.06 0.09 0.11 0.16 0.07 0.04 0.04 0.06 0.08 0.12 0.09 0.09 0.08 0.06 0.07 0.08 0.08 0.05 0.05 0.07 0.09 0.07 0.07 0.07 0.05 0.02 0.03 0.03
0.00 0.01 0.04 0.11 0.09 0.07 0.04 0.01 0.01 0.00 0.00 0.01 0.01 0.00 0.01 0.03 0.03 0.07 0.10 0.07 0.07 0.08 0.09 0.08 0.06 0.04 0.04 0.04 0.05 0.08 0.17 0.13 0.12 0.10 0.09 0.07 0.09 0.10 0.10 0.09 0.08 0.08 0.08 0.07 0.08 0.05 0.02 0.03 0.03
0.00 0.01 0.04 0.09 0.05 0.01 0.01 0.01 0.00 0.01 0.00 0.01 0.00 0.01 0.01 0.02 0.03 0.05 0.04 0.03 0.06 0.09 0.08 0.05 0.05 0.06 0.05 0.05 0.06 0.08 0.13 0.13 0.13 0.12 0.11 0.08 0.08 0.10 0.13 0.15 0.12 0.10 0.09 0.08 0.08 0.07 0.04 0.04 0.05
0.01 0.03 0.07 0.05 0.01 0.01 0.00 0.00 0.00 0.01 0.01 0.01 0.01 0.02 0.03 0.01 0.01 0.01 0.01 0.03 0.05 0.09 0.10 0.08 0.06 0.08 0.08 0.09 0.10 0.11 0.10 0.11 0.12 0.12 0.11 0.09 0.09 0.09 0.13 0.16 0.14 0.12 0.11 0.10 0.09 0.07 0.05 0.04 0.05
0.04 0.11 0.09 0.02 0.00 0.01 0.00 0.00 0.00 0.00 0.01 0.01 0.01 0.02 0.03 0.01 0.01 0.02 0.03 0.04 0.04 0.05 0.08 0.10 0.08 0.08 0.08 0.10 0.12 0.13 0.11 0.11 0.11 0.11 0.10 0.10 0.09 0.09 0.10 0.14 0.15 0.12 0.11 0.09 0.08 0.07 0.05 0.04 0.04
0.04 0.11 0.05 0.01 0.00 0.00 0.00 0.00 0.00 0.01 0.01 0.00 0.00 0.02 0.03 0.02 0.02 0.02 0.04 0.04 0.03 0.03 0.05 0.08 0.09 0.09 0.08 0.10 0.12 0.14 0.14 0.15 0.13 0.12 0.11 0.09 0.07 0.07 0.08 0.13 0.14 0.13 0.11 0.08 0.06 0.05 0.06 0.05 0.05
0.03 0.03 0.01 0.00 0.00 0.00 0.00 0.00 0.00 0.02 0.01 0.01 0.01 0.03 0.02 0.02 0.02 0.03 0.03 0.03 0.03 0.03 0.03 0.04 0.07 0.08 0.09 0.09 0.11 0.12 0.13 0.15 0.14 0.13 0.12 0.09 0.07 0.05 0.05 0.07 0.12 0.11 0.10 0.08 0.06 0.05 0.06 0.08 0.08
0.01 0.02 0.02 0.00 0.00 0.00 0.00 0.00 0.00 0.01 0.00 0.00 0.00 0.02 0.01 0.02 0.02 0.03 0.03 0.04 0.04 0.04 0.05 0.05 0.05 0.05 0.06 0.08 0.11 0.14 0.12 0.13 0.13 0.14 0.10 0.09 0.11 0.09 0.08 0.05 0.07 0.08 0.10 0.09 0.07 0.06 0.06 0.11 0.10
0.02 0.02 0.01 0.00 0.00 0.00 0.00 0.00 0.00 0.00 0.00 0.00 0.01 0.01 0.02 0.01 0.02 0.02 0.02 0.03 0.04 0.04 0.04 0.05 0.07 0.08 0.07 0.07 0.11 0.16 0.19 0.18 0.14 0.15 0.11 0.09 0.11 0.13 0.09 0.05 0.06 0.07 0.10 0.11 0.11 0.11 0.10 0.11 0.11
0.01 0.00 0.00 0.00 0.00 0.00 0.00 0.00 0.00 0.00 0.01 0.01 0.01 0.02 0.02 0.02 0.03 0.04 0.03 0.03 0.04 0.04 0.02 0.03 0.05 0.07 0.08 0.08 0.10 0.19 0.27 0.22 0.16 0.15 0.13 0.11 0.10 0.11 0.10 0.10 0.08 0.10 0.12 0.15 0.17 0.15 0.12 0.10 0.11
0.00 0.00 0.00 0.00 0.00 0.00 0.00 0.00 0.00 0.01 0.01 0.00 0.01 0.01 0.03 0.03 0.04 0.05 0.04 0.05 0.05 0.04 0.03 0.03 0.04 0.04 0.04 0.04 0.07 0.12 0.18 0.15 0.12 0.12 0.12 0.10 0.12 0.12 0.11 0.11 0.10 0.11 0.13 0.18 0.21 0.18 0.12 0.11 0.09
0.00 0.00 0.00 0.00 0.00 0.00 0.00 0.00 0.00 0.00 0.00 0.00 0.00 0.01 0.03 0.04 0.05 0.06 0.05 0.06 0.05 0.03 0.02 0.04 0.03 0.03 0.04 0.05 0.05 0.05 0.08 0.09 0.08 0.09 0.08 0.09 0.11 0.11 0.11 0.10 0.11 0.11 0.13 0.15 0.18 0.17 0.12 0.12 0.10
0.00 0.00 0.00 0.00 0.00 0.00 0.01 0.01 0.00 0.00 0.00 0.00 0.00 0.01 0.02 0.03 0.03 0.05 0.05 0.04 0.03 0.02 0.02 0.03 0.02 0.03 0.03 0.04 0.03 0.05 0.06 0.06 0.06 0.06 0.06 0.08 0.08 0.07 0.07 0.08 0.09 0.08 0.12 0.14 0.15 0.17 0.16 0.13 0.11
0.01 0.01 0.01 0.00 0.00 0.00 0.01 0.02 0.04 0.02 0.01 0.01 0.01 0.01 0.02 0.03 0.02 0.03 0.03 0.03 0.03 0.02 0.01 0.01 0.01 0.02 0.02 0.02 0.02 0.04 0.04 0.04 0.05 0.06 0.05 0.06 0.07 0.06 0.06 0.06 0.06 0.06 0.06 0.08 0.12 0.14 0.16 0.15 0.11
0.01 0.01 0.01 0.00 0.00 0.00 0.01 0.04 0.07 0.02 0.02 0.03 0.03 0.02 0.03 0.03 0.02 0.03 0.03 0.04 0.04 0.03 0.02 0.02 0.01 0.01 0.01 0.01 0.01 0.03 0.03 0.03 0.04 0.05 0.06 0.05 0.06 0.06 0.06 0.06 0.06 0.07 0.05 0.05 0.08 0.10 0.14 0.13 0.10
0.00 0.01 0.00 0.00 0.00 0.00 0.00 0.01 0.03 0.02 0.02 0.04 0.05 0.04 0.04 0.04 0.02 0.02 0.02 0.03 0.04 0.03 0.02 0.01 0.01 0.01 0.01 0.01 0.02 0.02 0.03 0.03 0.03 0.04 0.07 0.07 0.06 0.07 0.08 0.08 0.09 0.09 0.07 0.07 0.07 0.10 0.14 0.16 0.15
0.00 0.01 0.00 0.00 0.00 0.00 0.00 0.00 0.01 0.02 0.03 0.05 0.05 0.05 0.06 0.04 0.03 0.02 0.01 0.02 0.03 0.03 0.02 0.01 0.01 0.02 0.02 0.02 0.02 0.03 0.02 0.03 0.03 0.04 0.06 0.08 0.10 0.10 0.12 0.13 0.11 0.09 0.09 0.10 0.11 0.12 0.15 0.18 0.16
0.00 0.00 0.00 0.00 0.00 0.00 0.00 0.00 0.00 0.00 0.02 0.04 0.05 0.05 0.04 0.03 0.02 0.01 0.01 0.01 0.01 0.02 0.02 0.02 0.02 0.02 0.03 0.03 0.03 0.03 0.03 0.03 0.03 0.05 0.06 0.06 0.08 0.09 0.10 0.12 0.15 0.13 0.12 0.14 0.15 0.15 0.15 0.16 0.14
0.00 0.00 0.00 0.00 0.00 0.00 0.00 0.00 0.00 0.00 0.00 0.02 0.04 0.04 0.03 0.03 0.02 0.01 0.01 0.02 0.01 0.01 0.01 0.02 0.02 0.02 0.02 0.03 0.03 0.03 0.03 0.02 0.02 0.03 0.06 0.06 0.06 0.05 0.06 0.09 0.10 0.13 0.14 0.14 0.15 0.14 0.13 0.15 0.14
0.00 0.00 0.00 0.00 0.00 0.00 0.01 0.01 0.00 0.00 0.00 0.01 0.01 0.02 0.02 0.02 0.01 0.02 0.02 0.02 0.01 0.01 0.02 0.02 0.02 0.02 0.02 0.03 0.03 0.04 0.03 0.03 0.03 0.04 0.05 0.06 0.06 0.05 0.05 0.06 0.11 0.18 0.17 0.14 0.12 0.10 0.10 0.12 0.11
0.01 0.00 0.00 0.00 0.00 0.00 0.01 0.02 0.01 0.00 0.00 0.01 0.00 0.00 0.00 0.01 0.01 0.02 0.02 0.02 0.01 0.02 0.02 0.02 0.02 0.02 0.02 0.02 0.03 0.04 0.04 0.04 0.04 0.04 0.04 0.05 0.04 0.04 0.05 0.07 0.13 0.16 0.18 0.18 0.14 0.13 0.11 0.11 0.10
0.00 0.00 0.00 0.00 0.00 0.00 0.00 0.01 0.00 0.00 0.00 0.01 0.02 0.02 0.01 0.01 0.02 0.02 0.01 0.01 0.01 0.02 0.02 0.01 0.01 0.01 0.01 0.02 0.02 0.03 0.04 0.04 0.04 0.04 0.04 0.04 0.03 0.03 0.05 0.10 0.14 0.12 0.12 0.12 0.10 0.11 0.10 0.10 0.10
0.00 0.00 0.00 0.00 0.01 0.01 0.00 0.00 0.00 0.00 0.00 0.00 0.01 0.01 0.00 0.01 0.02 0.01 0.01 0.01 0.02 0.02 0.01 0.01 0.02 0.02 0.02 0.01 0.01 0.02 0.03 0.03 0.04 0.04 0.04 0.02 0.01 0.02 0.03 0.06 0.08 0.08 0.07 0.08 0.09 0.10 0.10 0.11 0.12
0.00 0.00 0.00 0.01 0.01 0.00 0.00 0.00 0.00 0.01 0.01 0.00 0.00 0.00 0.00 0.01 0.01 0.01 0.02 0.02 0.02 0.02 0.02 0.02 0.03 0.03 0.02 0.02 0.03 0.03 0.04 0.04 0.03 0.03 0.03 0.02 0.01 0.02 0.03 0.04 0.07 0.11 0.11 0.09 0.07 0.07 0.08 0.10 0.10
0.00 0.00 0.01 0.01 0.01 0.00 0.00 0.00 0.00 0.00 0.00 0.00 0.00 0.00 0.00 0.00 0.00 0.01 0.01 0.01 0.02 0.02 0.01 0.01 0.01 0.02 0.03 0.05 0.04 0.04 0.03 0.03 0.03 0.04 0.03 0.02 0.01 0.01 0.03 0.05 0.08 0.09 0.09 0.07 0.07 0.06 0.05 0.07 0.08
0.00 0.00 0.00 0.00 0.01 0.00 0.01 0.01 0.00 0.00 0.00 0.00 0.00 0.00 0.00 0.00 0.00 0.00 0.00 0.01 0.01 0.00 0.00 0.00 0.01 0.03 0.07 0.09 0.05 0.03 0.03 0.02 0.03 0.03 0.03 0.03 0.02 0.02 0.03 0.03 0.05 0.06 0.06 0.05 0.05 0.06 0.08 0.09 0.09
0.00 0.00 0.00 0.00 0.02 0.01 0.01 0.01 0.00 0.00 0.00 0.00 0.00 0.00 0.00 0.00 0.00 0.00 0.00 0.00 0.00 0.00 0.00 0.00 0.01 0.01 0.04 0.06 0.05 0.03 0.02 0.02 0.02 0.02 0.02 0.02 0.03 0.03 0.03 0.03 0.04 0.05 0.06 0.06 0.06 0.07 0.09 0.09 0.08
0.00 0.00 0.00 0.00 0.01 0.01 0.01 0.02 0.00 0.00 0.00 0.00 0.00 0.00 0.00 0.00 0.00 0.00 0.00 0.00 0.00 0.00 0.00 0.00 0.00 0.00 0.00 0.01 0.01 0.01 0.01 0.01 0.02 0.02 0.02 0.03 0.04 0.03 0.03 0.03 0.04 0.05 0.05 0.06 0.06 0.07 0.08 0.07 0.08
0.00 0.00 0.00 0.00 0.00 0.00 0.01 0.01 0.00 0.00 0.01 0.01 0.01 0.01 0.00 0.00 0.00 0.00 0.00 0.00 0.00 0.00 0.00 0.00 0.00 0.01 0.01 0.01 0.01 0.01 0.01 0.02 0.02 0.03 0.03 0.04 0.04 0.04 0.04 0.04 0.04 0.04 0.05 0.05 0.06 0.07 0.07 0.06 0.06
MSLP
1006.38 1007.01 1007.56 1007.88 1007.92 1007.66 1007.15 1006.51 1005.88 1005.40 1005.17 1005.21 1005.50 1005.93 1006.39 1006.76 1006.95 1006.92 1006.73 1006.45 1006.21 1006.12 1006.25 1006.62 1007.21 1007.93 1008.69 1009.39 1009.96 1010.38 1010.67 1010.88 1011.06 1011.29 1011.58 1011.95 1012.38 1012.82 1013.22 1013.56 1013.82 1014.01 1014.14 1014.25 1014.36 1014.48 1014.63 1014.77 1014.90
1006.39 1007.04 1007.54 1007.78 1007.70 1007.32 1006.72 1006.04 1005.41 1004.98 1004.82 1004.93 1005.27 1005.73 1006.17 1006.49 1006.62 1006.54 1006.33 1006.08 1005.91 1005.92 1006.16 1006.66 1007.36 1008.17 1008.99 1009.72 1010.32 1010.77 1011.09 1011.33 1011.55 1011.80 1012.10 1012.45 1012.83 1013.20 1013.54 1013.80 1014.00 1014.16 1014.28 1014.41 1014.55 1014.71 1014.87 1015.02 1015.13
1006.47 1007.11 1007.55 1007.70 1007.53 1007.07 1006.43 1005.74 1005.16 1004.79 1004.70 1004.87 1005.23 1005.66 1006.05 1006.29 1006.33 1006.20 1005.96 1005.73 1005.62 1005.73 1006.09 1006.70 1007.50 1008.39 1009.26 1010.03 1010.67 1011.15 1011.51 1011.80 1012.06 1012.32 1012.62 1012.94 1013.25 1013.54 1013.78 1013.97 1014.12 1014.25 1014.39 1014.56 1014.75 1014.94 1015.13 1015.27 1015.36
1006.55 1007.17 1007.55 1007.63 1007.40 1006.91 1006.28 1005.65 1005.14 1004.87 1004.85 1005.07 1005.42 1005.79 1006.09 1006.21 1006.15 1005.95 1005.68 1005.47 1005.43 1005.63 1006.09 1006.79 1007.66 1008.59 1009.49 1010.30 1010.96 1011.48 1011.89 1012.23 1012.53 1012.82 1013.11 1013.39 1013.64 1013.84 1013.99 1014.11 1014.23 1014.36 1014.53 1014.74 1014.99 1015.22 1015.43 1015.56 1015.60
1006.58 1007.14 1007.46 1007.50 1007.25 1006.79 1006.24 1005.71 1005.33 1005.17 1005.24 1005.49 1005.81 1006.11 1006.29 1006.29 1006.13 1005.85 1005.56 1005.37 1005.38 1005.65 1006.18 1006.94 1007.84 1008.78 1009.68 1010.48 1011.16 1011.71 1012.17 1012.56 1012.92 1013.25 1013.56 1013.81 1014.00 1014.13 1014.22 1014.29 1014.38 1014.52 1014.73 1014.99 1015.28 1015.55 1015.75 1015.85 1015.84
1006.46 1006.95 1007.22 1007.23 1007.01 1006.63 1006.21 1005.84 1005.63 1005.61 1005.77 1006.05 1006.35 1006.56 1006.63 1006.52 1006.25 1005.91 1005.60 1005.44 1005.49 1005.82 1006.39 1007.16 1008.05 1008.96 1009.82 1010.59 1011.25 1011.82 1012.32 1012.78 1013.21 1013.60 1013.93 1014.18 1014.35 1014.44 1014.48 1014.52 1014.60 1014.75 1014.99 1015.29 1015.62 1015.90 1016.08 1016.13 1016.04
1006.16 1006.56 1006.77 1006.77 1006.62 1006.36 1006.11 1005.94 1005.92 1006.06 1006.33 1006.64 1006.91 1007.06 1007.03 1006.82 1006.48 1006.11 1005.80 1005.67 1005.76 1006.12 1006.70 1007.45 1008.28 1009.12 1009.91 1010.61 1011.24 1011.82 1012.37 1012.89 1013.40 1013.86 1014.25 1014.53 1014.70 1014.77 1014.79 1014.81 1014.88 1015.04 1015.30 1015.62 1015.95 1016.22 1016.37 1016.35 1016.18
1005.68 1005.98 1006.14 1006.16 1006.08 1005.97 1005.91 1005.95 1006.12 1006.42 1006.79 1007.15 1007.41 1007.51 1007.41 1007.15 1006.77 1006.39 1006.11 1006.01 1006.15 1006.52 1007.09 1007.79 1008.54 1009.28 1009.97 1010.59 1011.18 1011.76 1012.34 1012.94 1013.53 1014.07 1014.53 1014.85 1015.05 1015.13 1015.14 1015.14 1015.20 1015.35 1015.61 1015.92 1016.24 1016.48 1016.58 1016.50 1016.25
1005.11 1005.33 1005.44 1005.48 1005.49 1005.51 1005.62 1005.84 1006.19 1006.62 1007.08 1007.49 1007.75 1007.83 1007.71 1007.43 1007.07 1006.72 1006.48 1006.44 1006.61 1006.99 1007.53 1008.16 1008.82 1009.45 1010.03 1010.58 1011.12 1011.69 1012.31 1012.97 1013.64 1014.27 1014.79 1015.18 1015.40 1015.49 1015.50 1015.49 1015.52 1015.65 1015.87 1016.16 1016.43 1016.63 1016.68 1016.54 1016.23
1004.60 1004.75 1004.84 1004.89 1004.95 1005.08 1005.31 1005.67 1006.14 1006.67 1007.20 1007.63 1007.91 1008.00 1007.90 1007.65 1007.33 1007.05 1006.88 1006.90 1007.11 1007.49 1008.00 1008.57 1009.13 1009.66 1010.15 1010.63 1011.13 1011.69 1012.33 1013.04 1013.78 1014.48 1015.07 1015.50 1015.76 1015.86 1015.85 1015.82 1015.82 1015.90 1016.07 1016.30 1016.52 1016.67 1016.67 1016.49 1016.15
1004.31 1004.42 1004.48 1004.54 1004.63 1004.80 1005.10 1005.51 1006.04 1006.61 1007.16 1007.62 1007.92 1008.04 1007.98 1007.80 1007.56 1007.37 1007.29 1007.37 1007.62 1008.01 1008.49 1009.00 1009.49 1009.94 1010.36 1010.78 1011.25 1011.80 1012.46 1013.20 1013.98 1014.72 1015.35 1015.81 1016.09 1016.19 1016.17 1016.10 1016.06 1016.08 1016.18 1016.34 1016.50 1016.60 1016.57 1016.37 1016.02
1004.37 1004.47 1004.51 1004.55 1004.62 1004.78 1005.06 1005.46 1005.96 1006.52 1007.05 1007.51 1007.83 1007.99 1008.01 1007.92 1007.79 1007.70 1007.71 1007.86 1008.15 1008.54 1009.00 1009.46 1009.90 1010.30 1010.68 1011.07 1011.52 1012.06 1012.72 1013.46 1014.24 1014.99 1015.62 1016.09 1016.37 1016.46 1016.43 1016.33 1016.23 1016.19 1016.22 1016.31 1016.41 1016.46 1016.40 1016.20 1015.86
1004.84 1004.94 1004.96 1004.96 1004.97 1005.06 1005.25 1005.56 1005.97 1006.45 1006.94 1007.37 1007.72 1007.93 1008.04 1008.06 1008.04 1008.06 1008.16 1008.37 1008.68 1009.07 1009.51 1009.95 1010.36 1010.74 1011.10 1011.48 1011.92 1012.45 1013.08 1013.80 1014.54 1015.25 1015.85 1016.30 1016.56 1016.65 1016.60 1016.47 1016.34 1016.24 1016.21 1016.23 1016.27 1016.28 1016.21 1016.02 1015.72
1005.65 1005.76 1005.76 1005.69 1005.61 1005.58 1005.63 1005.80 1006.08 1006.45 1006.86 1007.27 1007.64 1007.92 1008.12 1008.26 1008.37 1008.48 1008.65 1008.90 1009.22 1009.60 1010.02 1010.45 1010.85 1011.24 1011.61 1012.00 1012.43 1012.94 1013.53 1014.17 1014.84 1015.47 1016.00 1016.40 1016.63 1016.71 1016.66 1016.53 1016.38 1016.25 1016.18 1016.15 1016.14 1016.12 1016.04 1015.87 1015.60
1006.62 1006.74 1006.71 1006.57 1006.39 1006.22 1006.12 1006.12 1006.25 1006.50 1006.84 1007.23 1007.62 1007.98 1008.29 1008.54 1008.76 1008.96 1009.18 1009.44 1009.75 1010.11 1010.51 1010.92 1011.34 1011.74 1012.14 1012.55 1012.99 1013.46 1013.98 1014.53 1015.08 1015.60 1016.04 1016.37 1016.57 1016.64 1016.61 1016.50 1016.37 1016.24 1016.15 1016.08 1016.05 1016.00 1015.92 1015.77 1015.54
1007.52 1007.63 1007.56 1007.37 1007.09 1006.80 1006.56 1006.42 1006.42 1006.56 1006.83 1007.21 1007.64 1008.09 1008.51 1008.88 1009.19 1009.47 1009.72 1009.98 1010.26 1010.58 1010.94 1011.34 1011.77 1012.20 1012.64 1013.07 1013.51 1013.94 1014.38 1014.82 1015.23 1015.62 1015.95 1016.20 1016.37 1016.45 1016.45 1016.40 1016.31 1016.22 1016.13 1016.06 1016.00 1015.94 1015.86 1015.73 1015.53
1008.12 1008.21 1008.12 1007.89 1007.56 1007.19 1006.85 1006.60 1006.50 1006.56 1006.79 1007.17 1007.66 1008.19 1008.72 1009.20 1009.61 1009.95 1010.22 1010.46 1010.70 1010.97 1011.29 1011.67 1012.10 1012.56 1013.03 1013.50 1013.93 1014.33 1014.69 1015.01 1015.29 1015.53 1015.74 1015.92 1016.05 1016.15 1016.21 1016.23 1016.21 1016.18 1016.13 1016.07 1016.01 1015.94 1015.85 1015.74 1015.58
1008.26 1008.34 1008.25 1008.02 1007.68 1007.30 1006.92 1006.62 1006.45 1006.47 1006.68 1007.07 1007.60 1008.22 1008.86 1009.45 1009.94 1010.33 1010.61 1010.83 1011.02 1011.23 1011.50 1011.85 1012.28 1012.77 1013.28 1013.78 1014.22 1014.59 1014.88 1015.09 1015.24 1015.35 1015.45 1015.55 1015.66 1015.78 1015.90 1016.00 1016.08 1016.12 1016.12 1016.09 1016.03 1015.96 1015.88 1015.78 1015.65
1007.93 1008.00 1007.94 1007.77 1007.49 1007.15 1006.79 1006.48 1006.28 1006.27 1006.46 1006.85 1007.43 1008.11 1008.84 1009.52 1010.10 1010.54 1010.85 1011.05 1011.20 1011.35 1011.57 1011.89 1012.31 1012.82 1013.36 1013.89 1014.35 1014.71 1014.95 1015.08 1015.12 1015.12 1015.12 1015.15 1015.24 1015.38 1015.55 1015.73 1015.90 1016.01 1016.07 1016.08 1016.04 1015.97 1015.89 1015.81 1015.72
1007.22 1007.31 1007.34 1007.28 1007.12 1006.88 1006.58 1006.28 1006.06 1006.00 1006.15 1006.52 1007.09 1007.81 1008.60 1009.36 1010.02 1010.53 1010.88 1011.08 1011.21 1011.32 1011.50 1011.78 1012.19 1012.70 1013.27 1013.84 1014.33 1014.70 1014.92 1014.99 1014.96 1014.87 1014.79 1014.76 1014.82 1014.96 1015.17 1015.42 1015.65 1015.84 1015.95 1015.99 1015.97 1015.92 1015.85 1015.79 1015.73
1006.33 1006.50 1006.66 1006.77 1006.78 1006.66 1006.44 1006.15 1005.89 1005.75 1005.79 1006.07 1006.59 1007.29 1008.11 1008.93 1009.68 1010.26 1010.67 1010.92 1011.05 1011.15 1011.30 1011.54 1011.94 1012.45 1013.04 1013.64 1014.16 1014.56 1014.79 1014.85 1014.78 1014.64 1014.50 1014.41 1014.43 1014.56 1014.78 1015.06 1015.34 1015.57 1015.73 1015.80 1015.80 1015.75 1015.70 1015.66 1015.64
1005.51 1005.81 1006.17 1006.49 1006.69 1006.71 1006.54 1006.24 1005.88 1005.59 1005.46 1005.57 1005.95 1006.58 1007.37 1008.24 1009.06 1009.74 1010.25 1010.57 1010.75 1010.87 1011.00 1011.23 1011.60 1012.10 1012.70 1013.32 1013.89 1014.33 1014.59 1014.67 1014.59 1014.42 1014.24 1014.10 1014.07 1014.16 1014.37 1014.64 1014.94 1015.19 1015.37 1015.47 1015.49 1015.45 1015.41 1015.39 1015.41
1004.96 1005.45 1006.04 1006.59 1006.98 1007.12 1006.99 1006.62 1006.10 1005.58 1005.20 1005.06 1005.24 1005.72 1006.45 1007.32 1008.22 1009.02 1009.65 1010.08 1010.35 1010.51 1010.66 1010.87 1011.21 1011.70 1012.29 1012.92 1013.52 1014.01 1014.32 1014.44 1014.38 1014.21 1014.00 1013.82 1013.73 1013.77 1013.92 1014.16 1014.44 1014.70 1014.89 1015.00 1015.03 1015.02 1014.99 1014.98 1015.03
1004.78 1005.50 1006.34 1007.12 1007.69 1007.92 1007.78 1007.28 1006.55 1005.75 1005.04 1004.59 1004.50 1004.78 1005.41 1006.26 1007.22 1008.14 1008.92 1009.50 1009.88 1010.12 1010.30 1010.51 1010.82 1011.27 1011.83 1012.46 1013.08 1013.61 1013.97 1014.14 1014.12 1013.97 1013.74 1013.52 1013.38 1013.35 1013.44 1013.63 1013.87 1014.11 1014.30 1014.43 1014.48 1014.47 1014.45 1014.46 1014.51
1004.93 1005.90 1006.99 1007.98 1008.70 1009.00 1008.80 1008.16 1007.18 1006.05 1004.99 1004.18 1003.78 1003.84 1004.32 1005.14 1006.15 1007.19 1008.11 1008.85 1009.37 1009.70 1009.93 1010.14 1010.43 1010.83 1011.35 1011.95 1012.57 1013.12 1013.53 1013.75 1013.78 1013.65 1013.43 1013.18 1012.99 1012.89 1012.91 1013.04 1013.24 1013.46 1013.66 1013.79 1013.86 1013.88 1013.87 1013.87 1013.92
1005.29 1006.49 1007.80 1008.98 1009.82 1010.15 1009.89 1009.08 1007.86 1006.41 1005.00 1003.85 1003.14 1002.95 1003.28 1004.04 1005.08 1006.21 1007.28 1008.17 1008.83 1009.27 1009.55 1009.77 1010.02 1010.36 1010.82 1011.38 1011.98 1012.53 1012.97 1013.24 1013.32 1013.23 1013.02 1012.77 1012.54 1012.39 1012.36 1012.44 1012.60 1012.81 1013.01 1013.17 1013.26 1013.30 1013.30 1013.30 1013.33
1005.67 1007.06 1008.54 1009.86 1010.79 1011.13 1010.82 1009.88 1008.45 1006.74 1005.03 1003.58 1002.59 1002.17 1002.35 1003.03 1004.06 1005.27 1006.45 1007.47 1008.25 1008.79 1009.13 1009.36 1009.57 1009.86 1010.25 1010.75 1011.30 1011.84 1012.30 1012.61 1012.74 1012.69 1012.52 1012.28 1012.04 1011.87 1011.80 1011.85 1011.99 1012.20 1012.41 1012.60 1012.73 1012.80 1012.81 1012.80 1012.80
1005.90 1007.41 1009.00 1010.40 1011.38 1011.75 1011.41 1010.39 1008.83 1006.95 1005.04 1003.36 1002.16 1001.55 1001.57 1002.15 1003.16 1004.38 1005.63 1006.74 1007.61 1008.23 1008.62 1008.86 1009.05 1009.28 1009.61 1010.04 1010.54 1011.06 1011.53 1011.87 1012.04 1012.05 1011.93 1011.72 1011.50 1011.33 1011.26 1011.30 1011.44 1011.66 1011.90 1012.13 1012.30 1012.40 1012.43 1012.41 1012.38
1005.87 1007.41 1009.02 1010.45 1011.45 1011.83 1011.51 1010.49 1008.90 1006.97 1004.97 1003.19 1001.85 1001.09 1000.98 1001.45 1002.38 1003.56 1004.81 1005.95 1006.88 1007.55 1007.97 1008.23 1008.41 1008.61 1008.88 1009.26 1009.72 1010.21 1010.67 1011.04 1011.26 1011.33 1011.27 1011.12 1010.95 1010.81 1010.76 1010.82 1010.98 1011.22 1011.50 1011.76 1011.97 1012.10 1012.15 1012.13 1012.07
1005.59 1007.06 1008.61 1009.99 1010.97 1011.37 1011.10 1010.16 1008.65 1006.78 1004.82 1003.03 1001.64 1000.79 1000.56 1000.91 1001.71 1002.80 1003.99 1005.10 1006.03 1006.72 1007.18 1007.46 1007.64 1007.83 1008.08 1008.42 1008.85 1009.33 1009.79 1010.18 1010.45 1010.59 1010.59 1010.52 1010.40 1010.32 1010.31 1010.40 1010.59 1010.85 1011.16 1011.45 1011.69 1011.85 1011.92 1011.90 1011.83
Thickness
5841 5843 5841 5832 5814 5807 5809 5822 5831 5830 5832 5842 5843 5835 5823 5814 5804 5790 5817 5828 5825 5818 5813 5810 5807 5805 5804 5803 5801 5800 5798 5797 5796 5794 5792 5790 5788 5787 5785 5784 5782 5781 5779 5778 5777 5776 5775 5774 5773
5851 5850 5839 5825 5807 5801 5809 5828 5829 5833 5841 5847 5844 5836 5824 5817 5822 5818 5822 5826 5826 5819 5815 5811 5807 5805 5803 5802 5800 5798 5797 5796 5794 5792 5790 5789 5787 5785 5784 5782 5781 5780 5779 5778 5777 5776 5775 5774 5773
5854 5854 5833 5822 5817 5811 5814 5832 5835 5843 5851 5846 5837 5834 5823 5815 5822 5821 5826 5830 5827 5821 5815 5809 5806 5804 5802 5801 5799 5797 5795 5794 5792 5791 5789 5787 5785 5784 5783 5781 5780 5779 5778 5777 5776 5775 5774 5773 5773
5857 5849 5838 5825 5821 5832 5836 5841 5845 5842 5845 5846 5838 5823 5822 5830 5828 5829 5832 5832 5826 5821 5815 5808 5806 5803 5802 5800 5798 5796 5794 5793 5791 5790 5788 5786 5785 5783 5782 5781 5779 5778 5777 5776 5775 5774 5774 5773 5772
5859 5844 5829 5824 5832 5843 5851 5853 5851 5841 5838 5839 5832 5815 5813 5830 5836 5835 5833 5831 5826 5820 5815 5809 5805 5803 5801 5799 5797 5795 5793 5792 5790 5789 5787 5785 5784 5783 5781 5780 5778 5777 5776 5775 5774 5774 5773 5772 5772
5849 5844 5825 5824 5836 5847 5854 5858 5852 5843 5839 5838 5830 5816 5813 5831 5832 5833 5833 5831 5828 5822 5815 5808 5805 5803 5800 5798 5796 5794 5793 5791 5789 5788 5786 5785 5784 5782 5780 5779 5778 5777 5776 5775 5774 5773 5773 5772 5772
5846 5837 5831 5838 5839 5842 5853 5862 5852 5843 5838 5839 5837 5815 5815 5827 5833 5835 5833 5831 5827 5823 5817 5811 5806 5803 5800 5798 5796 5794 5792 5790 5789 5787 5785 5784 5783 5782 5780 5779 5778 5777 5775 5775 5774 5774 5773 5772 5772
5870 5846 5839 5846 5841 5841 5859 5863 5859 5850 5842 5851 5845 5818 5812 5826 5835 5835 5832 5828 5825 5822 5818 5814 5810 5805 5801 5798 5795 5794 5791 5790 5788 5787 5785 5784 5783 5782 5780 5779 5777 5777 5776 5775 5775 5774 5773 5772 5772
5880 5845 5835 5845 5847 5850 5864 5858 5859 5863 5852 5849 5848 5838 5834 5837 5837 5831 5825 5822 5820 5819 5817 5815 5812 5808 5805 5801 5797 5794 5792 5790 5788 5786 5785 5784 5784 5783 5781 5780 5779 5778 5777 5776 5775 5774 5773 5773 5773
5870 5841 5848 5865 5868 5864 5866 5861 5859 5854 5842 5839 5838 5840 5841 5837 5832 5826 5821 5816 5815 5814 5815 5815 5812 5809 5806 5804 5798 5796 5794 5791 5789 5787 5786 5785 5785 5784 5783 5781 5780 5779 5778 5776 5776 5775 5774 5774 5775
5875 5860 5868 5873 5879 5875 5867 5865 5868 5852 5836 5838 5834 5833 5836 5834 5830 5826 5822 5818 5815 5816 5814 5814 5812 5809 5806 5803 5800 5797 5795 5792 5790 5788 5787 5786 5786 5785 5784 5782 5781 5779 5778 5777 5777 5776 5776 5777 5778
5877 5879 5882 5881 5884 5877 5869 5866 5860 5854 5847 5854 5849 5844 5838 5832 5829 5826 5822 5820 5817 5815 5813 5813 5811 5808 5805 5803 5801 5798 5796 5793 5791 5789 5787 5786 5785 5785 5784 5783 5782 5781 5780 5779 5779 5778 5779 5779 5780
5877 5880 5887 5889 5887 5880 5872 5863 5857 5854 5860 5860 5853 5845 5838 5834 5832 5830 5827 5823 5818 5813 5813 5812 5810 5806 5803 5801 5800 5799 5797 5795 5792 5789 5787 5786 5785 5784 5784 5783 5782 5782 5782 5780 5779 5779 5780 5780 5780
5878 5881 5885 5889 5885 5880 5867 5860 5854 5854 5861 5855 5847 5841 5839 5835 5833 5830 5826 5821 5818 5815 5813 5812 5809 5805 5802 5800 5798 5798 5797 5794 5792 5790 5787 5786 5785 5784 5783 5782 5781 5781 5781 5780 5779 5779 5779 5779 5779
5882 5869 5872 5882 5885 5880 5870 5847 5849 5859 5860 5851 5845 5841 5839 5837 5835 5830 5827 5823 5819 5816 5814 5811 5809 5806 5802 5800 5798 5798 5796 5794 5792 5790 5788 5786 5785 5783 5782 5781 5781 5781 5780 5780 5779 5778 5778 5778 5778
5870 5854 5848 5874 5885 5882 5862 5829 5851 5863 5856 5848 5845 5841 5838 5836 5835 5833 5830 5826 5822 5817 5813 5811 5811 5806 5802 5800 5798 5797 5796 5794 5792 5790 5788 5785 5784 5783 5781 5781 5781 5780 5780 5779 5778 5777 5775 5775 5775
5851 5843 5848 5864 5886 5882 5865 5843 5856 5867 5856 5847 5845 5842 5838 5835 5834 5833 5832 5827 5823 5818 5814 5810 5808 5805 5802 5800 5797 5796 5795 5794 5792 5790 5787 5785 5783 5782 5781 5781 5780 5779 5779 5778 5777 5776 5774 5772 5772
5841 5847 5852 5859 5880 5879 5865 5856 5862 5868 5860 5850 5847 5844 5839 5835 5834 5834 5833 5829 5824 5819 5814 5810 5807 5805 5802 5799 5797 5795 5794 5793 5792 5790 5787 5785 5783 5782 5781 5780 5779 5779 5778 5776 5774 5773 5773 5772 5771
5864 5858 5856 5869 5888 5877 5865 5859 5862 5867 5862 5853 5847 5845 5841 5838 5839 5837 5834 5830 5824 5818 5813 5809 5806 5803 5801 5797 5793 5791 5790 5791 5790 5790 5787 5785 5783 5782 5780 5779 5778 5778 5776 5774 5773 5772 5770 5769 5771
5866 5855 5857 5872 5886 5875 5862 5861 5869 5870 5864 5860 5852 5848 5844 5840 5837 5835 5833 5830 5825 5818 5814 5809 5806 5803 5801 5798 5796 5794 5792 5791 5791 5790 5787 5785 5783 5782 5781 5778 5777 5776 5774 5772 5771 5770 5767 5767 5769
5860 5858 5862 5864 5875 5876 5860 5848 5859 5868 5869 5863 5860 5857 5851 5844 5838 5835 5832 5830 5826 5820 5815 5811 5807 5804 5801 5800 5797 5795 5793 5790 5788 5787 5786 5785 5784 5782 5780 5779 5776 5775 5774 5771 5769 5768 5765 5762 5765
5848 5872 5871 5866 5855 5848 5855 5829 5848 5858 5857 5856 5856 5855 5854 5851 5846 5839 5834 5830 5827 5823 5819 5813 5808 5804 5802 5800 5796 5792 5787 5784 5785 5786 5785 5784 5783 5781 5780 5778 5776 5774 5773 5770 5769 5768 5766 5763 5760
5860 5875 5868 5862 5851 5843 5852 5837 5844 5858 5846 5850 5856 5856 5857 5855 5850 5842 5838 5833 5830 5826 5821 5815 5809 5805 5802 5799 5796 5792 5789 5787 5787 5787 5784 5783 5782 5780 5779 5777 5775 5772 5771 5769 5768 5766 5764 5763 5760
5871 5865 5859 5856 5845 5821 5841 5835 5833 5851 5852 5855 5859 5859 5857 5855 5850 5844 5841 5836 5830 5827 5822 5815 5809 5804 5801 5798 5795 5791 5788 5786 5784 5783 5781 5781 5780 5779 5778 5776 5773 5771 5769 5768 5766 5765 5763 5761 5760
5862 5838 5818 5810 5811 5815 5848 5842 5842 5863 5871 5866 5863 5860 5859 5856 5849 5842 5837 5833 5828 5824 5820 5815 5808 5802 5800 5797 5794 5792 5789 5786 5783 5781 5780 5778 5777 5776 5775 5775 5771 5769 5767 5766 5765 5763 5761 5760 5758
5850 5838 5808 5795 5800 5822 5843 5836 5852 5875 5879 5877 5872 5866 5860 5855 5850 5844 5838 5833 5828 5824 5819 5814 5808 5803 5799 5796 5793 5791 5788 5785 5783 5781 5779 5777 5776 5776 5775 5772 5770 5767 5765 5764 5762 5760 5759 5757 5756
5839 5839 5849 5830 5822 5817 5827 5843 5858 5875 5871 5868 5865 5861 5855 5852 5849 5844 5839 5833 5828 5823 5819 5815 5809 5803 5799 5796 5792 5789 5786 5783 5781 5780 5779 5777 5775 5775 5772 5770 5767 5764 5762 5760 5758 5756 5754 5753 5752
5857 5851 5841 5824 5802 5794 5815 5827 5834 5848 5852 5857 5856 5854 5852 5850 5846 5842 5837 5832 5828 5824 5820 5815 5809 5803 5799 5796 5792 5789 5785 5783 5780 5778 5775 5774 5773 5771 5768 5766 5763 5761 5759 5756 5753 5752 5750 5748 5747
5845 5841 5835 5827 5822 5801 5794 5814 5853 5854 5855 5853 5852 5850 5849 5847 5844 5839 5835 5831 5827 5823 5818 5812 5808 5802 5797 5794 5791 5787 5784 5781 5778 5775 5773 5771 5769 5767 5764 5762 5759 5757 5755 5752 5749 5747 5746 5743 5742
5853 5845 5839 5816 5810 5815 5803 5813 5861 5862 5861 5855 5850 5848 5845 5845 5842 5837 5833 5828 5823 5819 5815 5809 5804 5800 5796 5792 5788 5784 5782 5779 5775 5772 5770 5768 5765 5764 5761 5758 5755 5753 5751 5749 5746 5743 5741 5739 5737